Weather History for Statesville, NC

Change the Weather History Date:

Thursday, January 17, 2013

  Actual Average (KHKY) Record (KHKY)
Temperature  
Mean Temperature 40 °F -  
Max Temperature 49 °F 46 °F 73 °F (1974)
Min Temperature 32 °F 26 °F -3 °F (1977)
Degree Days  
Heating Degree Days 24    
Moisture  
Dew Point 43 °F    
Average Humidity 95    
Maximum Humidity 100    
Minimum Humidity 93    
Precipitation  
Precipitation 1.43 in - - ()
Sea Level Pressure  
Sea Level Pressure 29.96 in    
Wind  
Wind Speed 5 mph (NNE)    
Max Wind Speed 24 mph    
Max Gust Speed 32 mph    
Visibility 4 miles    
Events Rain , Snow    
Averages and records for this station are not official NWS values.
T = Trace of Precipitation, MM = Missing Value Source: NWS Daily Summary

Daily Weather History Graph

Daily Weather History Graph

Search for Another Location

Airport:

Trip Planner

Search our weather history database for the weather conditions in past years. The results will help you decide how hot, cold, wet, or windy it might be!

Date:

Astronomy

Jan. 17, 2013 Rise Set
Actual Time 7:32 AM EST 5:35 PM EST
Civil Twilight 7:04 AM EST 6:03 PM EST
Nautical Twilight 6:33 AM EST 6:34 PM EST
Astronomical Twilight 6:02 AM EST 7:05 PM EST
Moon 10:53 AM EST (1/17) No Moon Set
Length of Visible Light 10h 58m
Length of Day
10h 03m
Waxing Crescent, 37% of the Moon is Illuminated
Jan 17
Waxing Crescent
Jan 18
First Quarter
Jan 26
Full
Feb 3
Last Quarter
Feb 10
New

Hourly Weather History & Observations

Time (EST) Temp. Windchill Dew Point Humidity Pressure Visibility Wind Dir Wind Speed Gust Speed Precip Events Conditions
12:15 AM 47.8 °F - 46.4 °F 95% 29.98 in 3.0 mi Calm Calm - N/A   Drizzle
12:35 AM 48.0 °F - 46.6 °F 95% 29.97 in 3.0 mi Calm Calm - 0.02 in Rain Light Rain
12:55 AM 48.0 °F - 46.8 °F 95% 29.97 in 2.0 mi Calm Calm - 0.04 in Rain Heavy Rain
1:15 AM 48.0 °F - 46.8 °F 95% 29.96 in 2.0 mi Calm Calm - 0.02 in Rain Light Rain
1:35 AM 48.2 °F - 46.8 °F 95% 29.95 in 2.5 mi Calm Calm - 0.04 in Rain Rain
1:55 AM 48.2 °F - 46.9 °F 95% 29.95 in 2.5 mi Calm Calm - 0.05 in Rain Light Rain
2:15 AM 48.2 °F - 47.1 °F 96% 29.96 in 3.0 mi Calm Calm - 0.01 in Rain Rain
2:35 AM 48.2 °F - 47.1 °F 96% 29.96 in 3.0 mi Calm Calm - 0.01 in Rain Rain
2:55 AM 48.2 °F - 47.3 °F 97% 29.96 in 2.0 mi Calm Calm - 0.01 in   Overcast
3:15 AM 48.2 °F - 47.3 °F 97% 29.97 in 4.0 mi Calm Calm - N/A   Overcast
3:35 AM 48.4 °F - 47.3 °F 96% 29.96 in 4.0 mi Calm Calm - N/A Rain Light Rain
3:55 AM 48.2 °F - 47.3 °F 97% 29.95 in 3.0 mi Calm Calm - 0.01 in Rain Rain
4:15 AM 48.2 °F - 47.3 °F 97% 29.95 in 2.0 mi NNE 3.5 mph - 0.01 in   Drizzle
4:35 AM 48.4 °F - 47.3 °F 96% 29.95 in 2.5 mi NE 3.5 mph - 0.03 in Rain Rain
4:55 AM 48.6 °F - 47.5 °F 96% 29.95 in 3.0 mi NNE 5.8 mph - 0.05 in Rain Light Rain
5:15 AM 48.7 °F - 47.7 °F 96% 29.96 in 3.0 mi NE 3.5 mph - 0.04 in Rain Heavy Rain
5:35 AM 49.1 °F - 47.8 °F 95% 29.94 in 3.0 mi NE 4.6 mph - 0.06 in Rain Light Rain
6:15 AM 49.1 °F - 47.8 °F 95% 29.96 in 5.0 mi NE 3.5 mph - N/A Rain Rain
6:35 AM 49.1 °F - 47.7 °F 95% 29.96 in 5.0 mi NE 4.6 mph - 0.03 in Rain Light Rain
6:55 AM 49.1 °F - 47.7 °F 95% 29.97 in 5.0 mi NNE 4.6 mph - 0.04 in Rain Light Rain
7:15 AM 49.1 °F - 47.7 °F 95% 29.97 in 4.0 mi NE 5.8 mph - 0.02 in Rain Light Rain
7:35 AM 49.1 °F - 47.7 °F 95% 29.97 in 4.0 mi NE 8.1 mph - 0.03 in Rain Light Rain
7:55 AM 48.9 °F - 47.5 °F 95% 29.97 in 5.0 mi NE 6.9 mph - 0.05 in Rain Light Rain
8:15 AM 48.7 °F - 47.3 °F 95% 29.98 in 4.0 mi NE 6.9 mph - 0.03 in Rain Light Rain
8:35 AM 48.7 °F - 47.3 °F 95% 29.98 in 5.0 mi NE 10.4 mph - 0.04 in Rain Light Rain
8:55 AM 48.2 °F - 46.4 °F 93% 29.99 in 4.0 mi NE 9.2 mph 21.9 mph 0.05 in Rain Light Rain
9:15 AM 48.2 °F - 46.4 °F 93% 29.99 in 5.0 mi NE 8.1 mph - 0.01 in Rain Rain
9:35 AM 48.4 °F - 46.8 °F 94% 29.99 in 7.0 mi NE 9.2 mph - 0.01 in Rain Rain
9:55 AM 48.6 °F - 46.9 °F 94% 29.99 in 10.0 mi East 8.1 mph - 0.02 in Rain Rain
10:15 AM 47.8 °F - 46.2 °F 94% 29.99 in 5.0 mi ENE 9.2 mph - N/A   Drizzle
10:35 AM 47.5 °F - 45.9 °F 94% 29.98 in 3.0 mi NE 10.4 mph 16.1 mph 0.05 in Rain Rain
10:55 AM 46.9 °F - 45.5 °F 95% 29.98 in 4.0 mi NE 13.8 mph 18.4 mph 0.09 in Rain Rain
11:15 AM 46.6 °F - 45.0 °F 94% 29.97 in 4.0 mi NE 12.7 mph 16.1 mph 0.05 in Rain Rain
11:35 AM 46.2 °F 41.2 °F 44.4 °F 93% 29.98 in 4.0 mi ENE 10.4 mph - 0.08 in Rain Rain
11:55 AM 45.7 °F 39.5 °F 44.1 °F 94% 29.96 in 4.0 mi NE 13.8 mph 18.4 mph 0.13 in Rain Rain
12:15 PM 45.0 °F 37.9 °F 43.2 °F 93% 29.93 in 4.0 mi NNE 16.1 mph 27.6 mph 0.01 in Rain Light Rain
12:35 PM 44.6 °F 37.4 °F 42.6 °F 93% 29.91 in 5.0 mi NE 16.1 mph 23.0 mph 0.02 in Rain Light Rain
12:55 PM 44.2 °F 37.6 °F 42.4 °F 93% 29.89 in 3.0 mi ENE 13.8 mph 26.5 mph 0.03 in Rain Rain
1:15 PM 43.7 °F 36.3 °F 41.9 °F 93% 29.89 in 4.0 mi NE 16.1 mph 21.9 mph N/A Rain Rain
1:55 PM 42.4 °F 35.3 °F 41.0 °F 95% 29.89 in 3.0 mi NNE 13.8 mph 24.2 mph 0.09 in Rain Heavy Rain
2:15 PM 41.2 °F 32.7 °F 39.4 °F 93% 29.88 in 4.0 mi NNE 17.3 mph 24.2 mph 0.03 in Rain Light Rain
2:35 PM 40.5 °F 31.8 °F 38.8 °F 94% 29.86 in 4.0 mi NNE 17.3 mph 26.5 mph 0.03 in Rain Heavy Rain
2:55 PM 39.9 °F 30.2 °F 38.1 °F 93% 29.86 in 7.0 mi North 20.7 mph 29.9 mph 0.03 in Rain Light Rain
3:15 PM 38.8 °F 28.5 °F 37.4 °F 95% 29.87 in 3.0 mi NNE 21.9 mph 26.5 mph 0.06 in Rain Rain
3:35 PM 38.7 °F 30.1 °F 37.4 °F 95% 29.88 in 4.0 mi NNE 15.0 mph 26.5 mph 0.09 in Rain Rain
3:55 PM 38.8 °F 29.4 °F 37.4 °F 95% 29.88 in 4.0 mi NNE 18.4 mph 27.6 mph 0.13 in Rain Rain
4:15 PM 38.8 °F 29.1 °F 37.4 °F 95% 29.87 in 5.0 mi NNE 19.6 mph 25.3 mph 0.03 in Rain Light Rain
4:35 PM 38.7 °F 30.1 °F 37.4 °F 95% 29.88 in 7.0 mi North 15.0 mph 28.8 mph 0.04 in Rain Rain
4:55 PM 39.0 °F 30.3 °F 37.4 °F 94% 29.89 in 3.0 mi North 16.1 mph 23.0 mph 0.09 in Rain Heavy Rain
5:55 PM 38.5 °F 29.9 °F 36.5 °F 93% 29.94 in 5.0 mi North 15.0 mph 23.0 mph 0.23 in Rain Rain
6:35 PM 37.8 °F 26.6 °F 36.1 °F 94% 29.92 in 5.0 mi NNE 24.2 mph 32.2 mph 0.10 in Rain Rain
8:55 PM 32.4 °F 26.0 °F 32.0 °F 99% 30.05 in 4.0 mi North 6.9 mph - 0.06 in   Overcast
9:15 PM 32.0 °F 27.5 °F 32.0 °F 100% 30.07 in 1.2 mi NNW 4.6 mph - 0.02 in Snow Light Snow
9:55 PM 32.0 °F 27.5 °F 32.0 °F 100% 30.13 in 3.0 mi West 4.6 mph - 0.06 in Snow Light Snow
10:15 PM 32.2 °F 28.9 °F 32.0 °F 99% 30.15 in 7.0 mi West 3.5 mph - 0.01 in   Overcast
10:35 PM 32.2 °F - 32.0 °F 99% 30.15 in 10.0 mi Calm Calm - 0.01 in   Light Drizzle
10:55 PM 32.2 °F - 32.0 °F 99% 30.15 in 10.0 mi Calm Calm - 0.01 in   Scattered Clouds